Weather in Gafurovo

Russia / Republic of Bashkortostan     54°31′27″N   53°41′44″E
temp.,
°C
wind,
m/s
gust,
m/s
humid.,
%
clouds,
%
prec.,
mm/h
press.,
hPa
HPBL,
m
3 march, wed
wed323:00−2sw61394100 1.4 1001586
02:00−3sw4795100 0.5 1000171
05:00−6sw479665 0.5 1001147
08:00−8sw349546 0.0 100043
11:00−5wsw369532 0.0 1001268
14:00−2wsw369382 0.0 1001469
17:00−2wsw469291 0.1 1001609
20:00−5wsw4995100 0.3 1001298
4 march, thu
thu423:00−7w51194100 0.5 1003390
02:00−9wnw5129098 0.4 1003459
05:00−12wsw479575 0.4 1005119
08:00−13sw489536 0.0 1004165
11:00−9sw6139366 0.1 1004465
14:00−6sw71290100 0.3 1002560
17:00−5sw81490100 0.4 1000774
20:00−4sw81791100 0.2 998851
5 march, fri
fri523:00−1wsw71496100 1.1 998905
02:00−2wsw51287100 1.8 999623
05:00−4wsw41089100 1.8 1000390
08:00−4sw2497100 0.8 1001190
11:00−2ssw2497100 2.3 1001336
14:00−1sw5999100 1.4 1000644
17:000ssw38100100 3.4 999475
20:00−3nnw91495100 3.1 1000574
6 march, sat
sat623:00−7wnw4995100 3.7 1006270
02:00−14wnw359495 0.1 1011116
05:00−18w229273 0.1 101320
08:00−19sw119586 0.0 101420
11:00−14n119093 0.0 1013143
14:00−12nne2289100 0.0 1012262
17:00−11nne2391100 0.0 1011293
20:00−16nnw1295100 0.0 101120
7 march, sun
sun723:00−18wnw119983 0.0 101120
02:00−19wsw11950 0.0 101120
05:00−19sw22930 0.0 101220
08:00−17sw229766 0.1 101251
11:00−14wsw249382 0.4 1014270
14:00−11w3586100 0.0 1014624
17:00−11sw358673 0.1 1014542
20:00−15s489453 0.0 1013162